Albany, NY

4:51 PM EST on December 06, 2019 (GMT -0500)
Albany International

Weather History for KALB - October, 2019

Change the Weather History Date:

Tuesday, October 8, 2019

  Actual Average Record
Temperature  
Mean Temperature 55 °F 52 °F  
Max Temperature 65 °F 63 °F 80 °F (2017)
Min Temperature 45 °F 42 °F 21 °F (1964)
Degree Days  
Heating Degree Days 10 13  
Month to date heating degree days 78 91  
Since 1 July heating degree days 155 258  
Cooling Degree Days 0 0  
Month to date cooling degree days 4 0  
Year to date cooling degree days 771 594  
Growing Degree Days 6 (Base 50)    
Moisture  
Dew Point 48 °F    
Average Humidity 69    
Maximum Humidity 93    
Minimum Humidity 44    
Precipitation  
Precipitation 0.00 in 0.12 in 2.63 in (2005)
Month to date precipitation 2.11 0.95  
Year to date precipitation 33.32 30.40  
Snow  
Snow 0.00 in 0.00 in 0.00 in ()
Month to date snowfall 0.0 0.1  
Since 1 July snowfall 0.0 0.1  
Since 1 September snowfall 0.0 0.1  
Snow Depth 0.00 in    
Sea Level Pressure  
Sea Level Pressure 30.28 in    
Wind  
Wind Speed 3 mph (North)    
Max Wind Speed 15 mph    
Max Gust Speed 19 mph    
Visibility 10 miles    
Events Fog    
T = Trace of Precipitation, MM = Missing Value Source: NWS Daily Summary

Daily Weather History Graph

Daily Weather History Graph

Search for Another Location

Airport or City:

Astronomy

Oct. 08, 2019 Rise Set
Actual Time 7:00 AM EDT 6:24 PM EDT
Civil Twilight 6:31 AM EDT 6:53 PM EDT
Nautical Twilight 5:59 AM EDT 7:25 PM EDT
Astronomical Twilight 5:26 AM EDT 7:58 PM EDT
Moon 4:30 PM EDT (10/8) 1:37 AM EDT (10/8)
Length of Visible Light 12h 21m
Length of Day
11h 24m
Waxing Gibbous, 77% of the Moon is Illuminated
Oct 8
Waxing Gibbous
Oct 13
Full
Oct 21
Last Quarter
Oct 27
New
Nov 4
First Quarter

Hourly Weather History & Observations

Time (EDT) Temp. Dew Point Humidity Pressure Visibility Wind Dir Wind Speed Gust Speed Precip Events Conditions
12:51 AM 55.9 °F 52.0 °F 87% 30.20 in 10.0 mi Calm Calm - 0.04 in   Overcast
1:27 AM 55.0 °F 52.0 °F 89% 30.22 in 10.0 mi Calm Calm - N/A Fog Overcast
1:34 AM 55.0 °F 52.0 °F 89% 30.21 in 10.0 mi Calm Calm - N/A Fog Overcast
1:51 AM 55.0 °F 52.0 °F 89% 30.21 in 10.0 mi Calm Calm - N/A Fog Overcast
2:31 AM 55.0 °F 52.0 °F 89% 30.22 in 10.0 mi Calm Calm - N/A Fog Overcast
2:51 AM 54.0 °F 52.0 °F 93% 30.23 in 4.0 mi Calm Calm - N/A Fog Patches of Fog
3:51 AM 55.0 °F 51.1 °F 86% 30.22 in 10.0 mi Calm Calm - N/A Fog Overcast
4:51 AM 54.0 °F 50.0 °F 86% 30.25 in 10.0 mi Calm Calm - N/A   Overcast
5:51 AM 53.1 °F 48.9 °F 86% 30.26 in 10.0 mi NW 4.6 mph - N/A   Overcast
6:51 AM 53.1 °F 48.0 °F 83% 30.27 in 10.0 mi Calm Calm - N/A Fog Shallow Fog
7:51 AM 53.1 °F 48.9 °F 86% 30.31 in 10.0 mi Calm Calm - N/A Fog Patches of Fog
8:33 AM 54.0 °F 50.0 °F 86% 30.31 in 10.0 mi North 5.8 mph - N/A   Mostly Cloudy
8:51 AM 54.0 °F 50.0 °F 86% 30.32 in 10.0 mi North 4.6 mph - N/A   Mostly Cloudy
9:51 AM 57.0 °F 51.1 °F 81% 30.32 in 10.0 mi North 3.5 mph - N/A   Mostly Cloudy
10:51 AM 59.0 °F 48.9 °F 69% 30.32 in 10.0 mi NE 5.8 mph - N/A   Mostly Cloudy
11:51 AM 62.1 °F 46.9 °F 58% 30.31 in 10.0 mi NE 4.6 mph - N/A   Mostly Cloudy
12:51 PM 64.0 °F 46.0 °F 52% 30.31 in 10.0 mi NNE 3.5 mph - N/A   Mostly Cloudy
1:51 PM 64.9 °F 45.0 °F 48% 30.29 in 10.0 mi North 12.7 mph - N/A   Mostly Cloudy
2:51 PM 64.0 °F 43.0 °F 46% 30.29 in 10.0 mi North 9.2 mph - N/A   Mostly Cloudy
3:51 PM 64.0 °F 43.0 °F 46% 30.28 in 10.0 mi North 9.2 mph - N/A   Mostly Cloudy
4:51 PM 62.1 °F 44.1 °F 52% 30.28 in 10.0 mi North 5.8 mph - N/A   Mostly Cloudy
5:51 PM 60.1 °F 46.0 °F 60% 30.27 in 10.0 mi North 6.9 mph - N/A   Mostly Cloudy
6:51 PM 55.9 °F 45.0 °F 67% 30.29 in 10.0 mi NNW 5.8 mph - N/A   Mostly Cloudy
7:51 PM 53.1 °F 45.0 °F 74% 30.30 in 10.0 mi Calm Calm - N/A   Mostly Cloudy
8:51 PM 51.1 °F 44.1 °F 77% 30.31 in 10.0 mi Calm Calm - N/A   Mostly Cloudy
9:51 PM 50.0 °F 44.1 °F 80% 30.32 in 10.0 mi NNE 3.5 mph - N/A   Mostly Cloudy
10:51 PM 48.0 °F 44.1 °F 86% 30.32 in 10.0 mi Calm Calm - N/A   Scattered Clouds
11:51 PM 46.9 °F 43.0 °F 86% 30.32 in 10.0 mi Calm Calm - N/A   Scattered Clouds